Location: Kalberh�ni
(46.4610°N, 7.2453°E)
Time: 05:50:10
(UTC+00:00)

Cosmos 2333 Rocket - Pass Details

Date: 25 October 2021
Orbit: 837 x 865 km, 70.8° (Epoch: 05 December)

Event Time Altitude Azimuth Distance (km) Brightness Sun altitude
Exits shadow 04:56:09 -1° 328° (NNW) 3,515 5.1 -12.0°
Rises 04:56:20 0° 327° (NNW) 3,446 5.0 -12.0°
Reaches altitude 10° 04:58:54 10° 321° (NW) 2,508 4.3 -11.6°
Maximum altitude 05:04:18 42° 252° (WSW) 1,211 2.6 -10.6°
Drops below altitude 10° 05:09:40 10° 183° (S) 2,498 4.7 -9.7°
Sets 05:12:14 0° 177° (S) 3,431 5.5 -9.3°
